| time (UTC) | temp F | wind direction | speed knots | gust knots | rain 1hr in | rain 24hr in | rain mn in | humidity % | barometer mb |
| 20260505011505 | 63 | 148 | 6.1 | 9.6 | 0.00 | 0.00 | 0.00 | 75 | 1011.0 |
| 20260505011004 | 63 | 130 | 7.0 | 9.6 | 0.00 | 0.00 | 0.00 | 74 | 1011.1 |
| 20260505010504 | 63 | 137 | 5.2 | 9.6 | 0.00 | 0.00 | 0.00 | 74 | 1011.1 |
| 20260505010005 | 63 | 161 | 6.1 | 9.6 | 0.00 | 0.00 | 0.00 | 73 | 1010.9 |
| 20260505005505 | 63 | 164 | 5.2 | 9.6 | 0.00 | 0.00 | 0.00 | 72 | 1010.9 |
| 20260505004504 | 64 | 135 | 7.0 | 10.4 | 0.00 | 0.00 | 0.00 | 69 | 1010.8 |
| 20260505004004 | 64 | 156 | 6.1 | 8.7 | 0.00 | 0.00 | 0.00 | 69 | 1010.8 |
| 20260505003005 | 64 | 137 | 5.2 | 12.2 | 0.00 | 0.00 | 0.00 | 66 | 1010.7 |
| 20260505002004 | 64 | 141 | 6.1 | 9.6 | 0.00 | 0.00 | 0.00 | 66 | 1010.7 |
| 20260505001505 | 65 | 121 | 6.1 | 8.7 | 0.00 | 0.00 | 0.00 | 66 | 1010.6 |
| 20260505001004 | 65 | 133 | 5.2 | 8.7 | 0.00 | 0.00 | 0.00 | 65 | 1010.6 |
| 20260505000504 | 66 | 142 | 5.2 | 8.7 | 0.00 | 0.00 | 0.00 | 62 | 1010.5 |
| 20260505000005 | 66 | 120 | 4.3 | 9.6 | 0.00 | 0.00 | 0.00 | 59 | 1010.5 |
| 20260504235004 | 67 | 132 | 5.2 | 9.6 | 0.00 | 0.00 | 0.00 | 55 | 1010.4 |
| 20260504234500 | 68 | 150 | 6.1 | 9.6 | 0.00 | 0.00 | 0.00 | 54 | 1010.5 |
| 20260504234002 | 68 | 155 | 6.1 | 10.4 | 0.00 | 0.00 | 0.00 | 53 | 1010.4 |
| 20260504233500 | 68 | 154 | 7.8 | 15.6 | 0.00 | 0.00 | 0.00 | 52 | 1010.5 |
| 20260504233000 | 68 | 156 | 7.8 | 15.6 | 0.00 | 0.00 | 0.00 | 51 | 1010.5 |
| 20260504232504 | 69 | 162 | 8.7 | 12.2 | 0.00 | 0.00 | 0.00 | 51 | 1010.5 |
| 20260504232004 | 69 | 166 | 7.8 | 14.8 | 0.00 | 0.00 | 0.00 | 51 | 1010.3 |
| 20260504231504 | 69 | 164 | 10.4 | 14.8 | 0.00 | 0.00 | 0.00 | 51 | 1010.5 |
| 20260504231000 | 69 | 161 | 7.8 | 13.0 | 0.00 | 0.00 | 0.00 | 50 | 1010.5 |
| 20260504230005 | 70 | 138 | 7.8 | 10.4 | 0.00 | 0.00 | 0.00 | 50 | 1010.4 |
| 20260504225502 | 70 | 161 | 8.7 | 13.9 | 0.00 | 0.00 | 0.00 | 50 | 1010.5 |
| 20260504225004 | 70 | 171 | 8.7 | 13.9 | 0.00 | 0.00 | 0.00 | 50 | 1010.4 |
| 20260504223959 | 70 | 163 | 9.6 | 13.9 | 0.00 | 0.00 | 0.00 | 49 | 1010.5 |
| 20260504223500 | 71 | 169 | 11.3 | 13.9 | 0.00 | 0.00 | 0.00 | 49 | 1010.5 |
| 20260504223004 | 71 | 169 | 10.4 | 14.8 | 0.00 | 0.00 | 0.00 | 48 | 1010.5 |
| 20260504222502 | 71 | 161 | 10.4 | 13.9 | 0.00 | 0.00 | 0.00 | 48 | 1010.4 |
| 20260504222000 | 71 | 174 | 8.7 | 13.9 | 0.00 | 0.00 | 0.00 | 49 | 1010.4 |
| 20260504221504 | 71 | 170 | 7.8 | 13.0 | 0.00 | 0.00 | 0.00 | 48 | 1010.4 |
| 20260504220959 | 71 | 165 | 8.7 | 13.9 | 0.00 | 0.00 | 0.00 | 46 | 1010.4 |
| 20260504220504 | 71 | 175 | 9.6 | 16.5 | 0.00 | 0.00 | 0.00 | 45 | 1010.5 |
| 20260504220004 | 71 | 161 | 8.7 | 16.5 | 0.00 | 0.00 | 0.00 | 47 | 1010.6 |
| 20260504215004 | 71 | 174 | 8.7 | 16.5 | 0.00 | 0.00 | 0.00 | 46 | 1010.6 |
| 20260504214504 | 71 | 161 | 8.7 | 16.5 | 0.00 | 0.00 | 0.00 | 47 | 1010.5 |
| 20260504213504 | 72 | 157 | 12.2 | 19.1 | 0.00 | 0.00 | 0.00 | 40 | 1010.7 |
| 20260504213004 | 72 | 161 | 13.0 | 19.1 | 0.00 | 0.00 | 0.00 | 40 | 1010.7 |
| 20260504212505 | 72 | 155 | 10.4 | 13.9 | 0.00 | 0.00 | 0.00 | 42 | 1010.7 |
| 20260504212005 | 72 | 159 | 11.3 | 14.8 | 0.00 | 0.00 | 0.00 | 40 | 1010.7 |
| 20260504211504 | 72 | 170 | 11.3 | 14.8 | 0.00 | 0.00 | 0.00 | 42 | 1010.8 |
| 20260504211005 | 72 | 164 | 9.6 | 14.8 | 0.00 | 0.00 | 0.00 | 42 | 1010.9 |
| 20260504210504 | 71 | 141 | 7.8 | 14.8 | 0.00 | 0.00 | 0.00 | 42 | 1010.7 |
| 20260504210004 | 72 | 148 | 7.8 | 14.8 | 0.00 | 0.00 | 0.00 | 44 | 1010.7 |
| 20260504205504 | 72 | 150 | 9.6 | 14.8 | 0.00 | 0.00 | 0.00 | 43 | 1010.7 |
| 20260504205000 | 72 | 153 | 9.6 | 13.9 | 0.00 | 0.00 | 0.00 | 43 | 1010.8 |
| 20260504204505 | 73 | 126 | 8.7 | 13.9 | 0.00 | 0.00 | 0.00 | 44 | 1010.8 |
| 20260504203500 | 73 | 174 | 11.3 | 13.9 | 0.00 | 0.00 | 0.00 | 42 | 1010.8 |
| 20260504203004 | 73 | 157 | 11.3 | 15.6 | 0.00 | 0.00 | 0.00 | 43 | 1010.8 |
| 20260504202504 | 73 | 142 | 10.4 | 13.9 | 0.00 | 0.00 | 0.00 | 42 | 1010.9 |
| 20260504202004 | 73 | 177 | 11.3 | 16.5 | 0.00 | 0.00 | 0.00 | 41 | 1011.0 |
| 20260504201504 | 73 | 167 | 14.8 | 16.5 | 0.00 | 0.00 | 0.00 | 39 | 1010.9 |
| 20260504201000 | 73 | 176 | 13.0 | 17.4 | 0.00 | 0.00 | 0.00 | 39 | 1011.0 |
| 20260504200502 | 73 | 169 | 13.0 | 16.5 | 0.00 | 0.00 | 0.00 | 37 | 1011.1 |
| 20260504195504 | 74 | 154 | 11.3 | 13.9 | 0.00 | 0.00 | 0.00 | 39 | 1011.2 |
| 20260504195004 | 74 | 170 | 9.6 | 13.9 | 0.00 | 0.00 | 0.00 | 38 | 1011.3 |
| 20260504194505 | 74 | 142 | 12.2 | 15.6 | 0.00 | 0.00 | 0.00 | 39 | 1011.3 |
| 20260504194004 | 74 | 167 | 10.4 | 15.6 | 0.00 | 0.00 | 0.00 | 41 | 1011.3 |
| 20260504193504 | 73 | 174 | 11.3 | 14.8 | 0.00 | 0.00 | 0.00 | 37 | 1011.5 |
| 20260504193004 | 73 | 176 | 12.2 | 16.5 | 0.00 | 0.00 | 0.00 | 38 | 1011.7 |
| 20260504192505 | 74 | 162 | 11.3 | 13.9 | 0.00 | 0.00 | 0.00 | 38 | 1011.7 |
| 20260504192005 | 73 | 169 | 11.3 | 12.2 | 0.00 | 0.00 | 0.00 | 40 | 1011.6 |
| 20260504191504 | 73 | 181 | 7.8 | 13.0 | 0.00 | 0.00 | 0.00 | 45 | 1011.6 |
| 20260504191005 | 73 | 180 | 8.7 | 13.9 | 0.00 | 0.00 | 0.00 | 44 | 1011.7 |
| 20260504190504 | 73 | 184 | 11.3 | 14.8 | 0.00 | 0.00 | 0.00 | 43 | 1011.7 |
| 20260504190005 | 73 | 183 | 8.7 | 12.2 | 0.00 | 0.00 | 0.00 | 41 | 1011.7 |
| 20260504185504 | 73 | 185 | 9.6 | 12.2 | 0.00 | 0.00 | 0.00 | 42 | 1011.9 |
| 20260504185004 | 73 | 194 | 7.0 | 10.4 | 0.00 | 0.00 | 0.00 | 44 | 1012.0 |
| 20260504184505 | 73 | 201 | 7.8 | 8.7 | 0.00 | 0.00 | 0.00 | 44 | 1012.0 |
| 20260504184004 | 72 | 187 | 5.2 | 7.0 | 0.00 | 0.00 | 0.00 | 40 | 1012.0 |
| 20260504183504 | 72 | 192 | 5.2 | 7.0 | 0.00 | 0.00 | 0.00 | 41 | 1012.1 |
| 20260504183004 | 72 | 188 | 5.2 | 7.0 | 0.00 | 0.00 | 0.00 | 37 | 1012.2 |
| 20260504182505 | 72 | 184 | 5.2 | 6.1 | 0.00 | 0.00 | 0.00 | 42 | 1012.2 |
| 20260504182005 | 72 | 190 | 5.2 | 7.8 | 0.00 | 0.00 | 0.00 | 42 | 1012.2 |
| 20260504181505 | 72 | 188 | 6.1 | 9.6 | 0.00 | 0.00 | 0.00 | 43 | 1012.4 |
| 20260504181004 | 72 | 189 | 7.0 | 9.6 | 0.00 | 0.00 | 0.00 | 44 | 1012.5 |
| 20260504180504 | 72 | 188 | 6.1 | 9.6 | 0.00 | 0.00 | 0.00 | 46 | 1012.6 |
| 20260504180004 | 72 | 193 | 7.0 | 9.6 | 0.00 | 0.00 | 0.00 | 44 | 1012.6 |
| 20260504175503 | 72 | 195 | 7.8 | 10.4 | 0.00 | 0.00 | 0.00 | 47 | 1012.7 |
| 20260504175004 | 71 | 190 | 8.7 | 8.7 | 0.00 | 0.00 | 0.00 | 44 | 1012.6 |
| 20260504174504 | 71 | 192 | 7.8 | 11.3 | 0.00 | 0.00 | 0.00 | 44 | 1012.7 |
| 20260504174000 | 71 | 191 | 8.7 | 11.3 | 0.00 | 0.00 | 0.00 | 41 | 1012.7 |
| 20260504173500 | 70 | 188 | 9.6 | 11.3 | 0.00 | 0.00 | 0.00 | 40 | 1012.8 |
| 20260504173003 | 71 | 181 | 8.7 | 11.3 | 0.00 | 0.00 | 0.00 | 41 | 1012.8 |
| 20260504172504 | 70 | 194 | 7.8 | 10.4 | 0.00 | 0.00 | 0.00 | 44 | 1013.0 |
| 20260504172000 | 69 | 192 | 5.2 | 8.7 | 0.00 | 0.00 | 0.00 | 42 | 1013.0 |
| 20260504171503 | 69 | 200 | 7.0 | 8.7 | 0.00 | 0.00 | 0.00 | 41 | 1013.1 |
| 20260504171004 | 69 | 176 | 4.3 | 5.2 | 0.00 | 0.00 | 0.00 | 41 | 1013.0 |
| 20260504170500 | 69 | 186 | 3.5 | 4.3 | 0.00 | 0.00 | 0.00 | 41 | 1013.1 |
| 20260504151004 | 64 | 185 | 4.3 | 6.1 | 0.00 | 0.00 | 0.00 | 49 | 1014.1 |
| 20260504150504 | 63 | 184 | 3.5 | 6.1 | 0.00 | 0.00 | 0.00 | 54 | 1014.2 |
| 20260504141000 | 63 | 215 | 7.8 | 12.2 | 0.00 | 0.00 | 0.00 | 54 | 1014.1 |
| 20260504140504 | 63 | 219 | 7.8 | 10.4 | 0.00 | 0.00 | 0.00 | 52 | 1014.1 |
| 20260504130501 | 60 | 196 | 8.7 | 11.3 | 0.00 | 0.00 | 0.00 | 61 | 1014.7 |
| 20260504110500 | 55 | 181 | 10.4 | 12.2 | 0.00 | 0.00 | 0.00 | 68 | 1015.7 |
| 20260504100459 | 55 | 195 | 9.6 | 13.0 | 0.00 | 0.00 | 0.00 | 72 | 1015.6 |
| 20260504081500 | 55 | 184 | 12.2 | 14.8 | 0.00 | 0.00 | 0.00 | 70 | 1015.5 |
| 20260504081000 | 55 | 164 | 11.3 | 16.5 | 0.00 | 0.00 | 0.00 | 70 | 1015.6 |
| 20260504080504 | 55 | 171 | 14.8 | 16.5 | 0.00 | 0.00 | 0.00 | 68 | 1015.7 |
| 20260504050500 | 54 | 158 | 7.0 | 12.2 | 0.00 | 0.00 | 0.00 | 73 | 1015.8 |
| 20260504050004 | 54 | 154 | 9.6 | 12.2 | 0.00 | 0.00 | 0.00 | 73 | 1016.0 |
| 20260504045505 | 54 | 176 | 12.2 | 15.6 | 0.00 | 0.00 | 0.00 | 73 | 1016.0 |
| 20260504045004 | 54 | 178 | 13.0 | 15.6 | 0.00 | 0.00 | 0.00 | 72 | 1016.1 |
| 20260504044505 | 53 | 176 | 13.0 | 13.9 | 0.00 | 0.00 | 0.00 | 71 | 1016.0 |
| 20260504044005 | 53 | 173 | 11.3 | 14.8 | 0.00 | 0.00 | 0.00 | 70 | 1016.0 |
| 20260504043005 | 54 | 162 | 10.4 | 13.0 | 0.00 | 0.00 | 0.00 | 68 | 1016.1 |
| 20260504042504 | 53 | 183 | 12.2 | 13.0 | 0.00 | 0.00 | 0.00 | 67 | 1016.0 |
| 20260504042005 | 53 | 186 | 12.2 | 13.0 | 0.00 | 0.00 | 0.00 | 67 | 1016.0 |
| 20260504041504 | 54 | 178 | 11.3 | 14.8 | 0.00 | 0.00 | 0.00 | 67 | 1015.9 |
| 20260504041005 | 54 | 179 | 10.4 | 11.3 | 0.00 | 0.00 | 0.00 | 67 | 1016.0 |
| 20260504040504 | 54 | 171 | 9.6 | 12.2 | 0.00 | 0.00 | 0.00 | 68 | 1015.7 |
| 20260504040004 | 54 | 184 | 10.4 | 12.2 | 0.00 | 0.00 | 0.00 | 69 | 1015.6 |
| 20260504035505 | 54 | 176 | 10.4 | 12.2 | 0.00 | 0.00 | 0.00 | 69 | 1015.6 |
| 20260504035004 | 54 | 180 | 10.4 | 12.2 | 0.00 | 0.00 | 0.00 | 70 | 1015.7 |
| 20260504034504 | 53 | 184 | 9.6 | 11.3 | 0.00 | 0.00 | 0.00 | 71 | 1015.6 |
| 20260504033504 | 52 | 182 | 8.7 | 9.6 | 0.00 | 0.00 | 0.00 | 73 | 1015.4 |
| 20260504033005 | 52 | 184 | 8.7 | 10.4 | 0.00 | 0.00 | 0.00 | 73 | 1015.5 |
| 20260504032504 | 52 | 181 | 6.1 | 9.6 | 0.00 | 0.00 | 0.00 | 72 | 1015.4 |
| 20260504032004 | 52 | 171 | 5.2 | 6.1 | 0.00 | 0.00 | 0.00 | 72 | 1015.4 |
| 20260504031505 | 52 | 157 | 5.2 | 6.1 | 0.00 | 0.00 | 0.00 | 72 | 1015.4 |
| 20260504031005 | 52 | 167 | 3.5 | 5.2 | 0.00 | 0.00 | 0.00 | 72 | 1015.4 |
| 20260504030504 | 52 | 151 | 3.5 | 6.1 | 0.00 | 0.00 | 0.00 | 71 | 1015.4 |
| 20260504030005 | 52 | 154 | 4.3 | 6.1 | 0.00 | 0.00 | 0.00 | 71 | 1015.4 |
| 20260504025504 | 52 | 158 | 1.7 | 4.3 | 0.00 | 0.00 | 0.00 | 70 | 1015.4 |
| 20260504025005 | 53 | 153 | 2.6 | 5.2 | 0.00 | 0.00 | 0.00 | 69 | 1015.3 |
| 20260504024504 | 53 | 164 | 1.7 | 6.1 | 0.00 | 0.00 | 0.00 | 68 | 1015.3 |
| 20260504024005 | 53 | 140 | 2.6 | 6.1 | 0.00 | 0.00 | 0.00 | 67 | 1015.4 |
| 20260504023504 | 52 | 153 | 4.3 | 6.1 | 0.00 | 0.00 | 0.00 | 67 | 1015.4 |
| 20260504023004 | 52 | 156 | 3.5 | 6.1 | 0.00 | 0.00 | 0.00 | 67 | 1015.4 |
| 20260504022504 | 52 | 142 | 2.6 | 4.3 | 0.00 | 0.00 | 0.00 | 66 | 1015.4 |
| 20260504022004 | 53 | 136 | 1.7 | 3.5 | 0.00 | 0.00 | 0.00 | 65 | 1015.4 |
| 20260504021505 | 53 | 125 | 0.9 | 4.3 | 0.00 | 0.00 | 0.00 | 66 | 1015.3 |
| 20260504021004 | 53 | 140 | 1.7 | 6.1 | 0.00 | 0.00 | 0.00 | 66 | 1015.3 |
| 20260504020005 | 53 | 146 | 0.9 | 3.5 | 0.00 | 0.00 | 0.00 | 66 | 1015.2 |
| 20260504015504 | 53 | 149 | 0.9 | 3.5 | 0.00 | 0.00 | 0.00 | 65 | 1015.3 |
| 20260504015005 | 53 | 159 | 1.7 | 4.3 | 0.00 | 0.00 | 0.00 | 63 | 1015.3 |
| 20260504014504 | 54 | 154 | 2.6 | 5.2 | 0.00 | 0.00 | 0.00 | 63 | 1015.4 |
| 20260504014004 | 54 | 163 | 1.7 | 5.2 | 0.00 | 0.00 | 0.00 | 65 | 1015.2 |
| 20260504013504 | 54 | 156 | 3.5 | 7.0 | 0.00 | 0.00 | 0.00 | 62 | 1015.2 |
| 20260504013004 | 54 | 146 | 3.5 | 7.0 | 0.00 | 0.00 | 0.00 | 63 | 1015.2 |
| 20260504012504 | 54 | 177 | 6.1 | 7.8 | 0.00 | 0.00 | 0.00 | 61 | 1015.0 |